This demonstration page uses our WeatherBlox Daily Observations layout. Learn more.

Left ArrowRight Arrow

33.98154, -81.23621

Hourly Observations for May 24, 2022

Temp ( °F °C ) Dew Point ( °F °C ) Humidity (%) Winds ( mph kmh ) Pressure ( in mb ) Visibility ( mi km ) Precip ( " mm )
12:56 am 00:56 Mostly Cloudy 69 20.6 67 19.4 93 93 SW 9 15 30.03 1017 10 16 0.00 0.00
1:56 am 01:56 Mostly Cloudy 69 20.6 67 19.4 93 93 SSW 8 13 30.03 1017 10 16 0.00 0.00
2:40 am 02:40 Cloudy 69 20.6 67 19.4 93 93 SSW 9 15 30.02 1017 10 16 0.00 0.00
2:56 am 02:56 Mostly Cloudy 69 20.6 67 19.4 93 93 SSW 8 13 30.02 1017 10 16 0.00 0.00
3:07 am 03:07 Cloudy 69 20.6 67 19.4 93 93 SSW 8 13 30.01 1016 10 16 0.00 0.00
3:56 am 03:56 Cloudy 69 20.6 68 20 96 96 SSW 5 7 30.01 1016 10 16 0.00 0.00
4:56 am 04:56 Mostly Cloudy 69 20.6 68 20 96 96 SSW 6 9 30.02 1017 10 16 0.00 0.00
5:06 am 05:06 Partly Cloudy 69 20.6 68 20 96 96 SW 5 7 30.02 1017 10 16 0.00 0.00
5:56 am 05:56 Mostly Cloudy 69 20.6 68 20 96 96 SSW 5 7 30.03 1017 10 16 0.00 0.00
6:12 am 06:12 Partly Cloudy 69 20.6 68 20 96 96 SSW 6 9 30.02 1017 10 16 0.00 0.00
6:56 am 06:56 Cloudy 69 20.6 68 20 96 96 SSW 6 9 30.04 1017 7 11 0.00 0.00
7:56 am 07:56 Cloudy with Mist and Fog 71 21.7 68 20 90 90 WSW 6 9 30.06 1018 6 10 0.00 0.00
8:56 am 08:56 Mostly Cloudy 72 22.2 68 20 87 87 SW 7 11 30.07 1018 8 13 0.00 0.00
9:56 am 09:56 Mostly Cloudy 75 23.9 68 20 79 79 WSW 6 9 30.07 1018 10 16 0.00 0.00
10:56 am 10:56 Mostly Cloudy 79 26.1 68 20 69 69 VRB 6 9 30.07 1018 10 16 0.00 0.00
11:56 am 11:56 Mostly Cloudy 81 27.2 68 20 65 65 VRB 5 7 30.08 1019 10 16 0.00 0.00
12:56 pm 12:56 Mostly Cloudy 83 28.3 68 20 61 61 VRB 7 11 30.08 1019 10 16 0.00 0.00
1:56 pm 13:56 Mostly Cloudy 84 28.9 69 20.6 61 61 VRB 3 6 30.07 1018 10 16 0.00 0.00
2:56 pm 14:56 Mostly Cloudy 85 29.4 68 20 57 57 WSW 8 13 30.05 1018 10 16 0.00 0.00
3:56 pm 15:56 Mostly Cloudy 86 30 68 20 55 55 W 7 11 30.03 1017 10 16 0.00 0.00
4:56 pm 16:56 Mostly Cloudy 86 30 68 20 55 55 VRB 3 6 30.02 1017 10 16 0.00 0.00
5:56 pm 17:56 Mostly Cloudy 86 30 69 20.6 57 57 NE 6 9 30.02 1017 10 16 0.00 0.00
6:56 pm 18:56 Mostly Cloudy 84 28.9 68 20 59 59 NNW 6 9 30.03 1017 10 16 0.00 0.00
7:56 pm 19:56 Partly Cloudy 83 28.3 68 20 61 61 NE 5 7 30.05 1018 10 16 0.00 0.00
8:56 pm 20:56 Partly Cloudy 81 27.2 68 20 65 65 NE 7 11 30.06 1018 10 16 0.00 0.00
9:56 pm 21:56 Partly Cloudy 76 24.4 65 18.3 69 69 NE 9 15 30.11 1020 10 16 0.00 0.00
10:56 pm 22:56 Mostly Cloudy 72 22.2 61 16.1 68 68 NE 13 20 30.14 1021 10 16 0.00 0.00
11:56 pm 23:56 Partly Cloudy 70 21.1 60 15.6 71 71 NE 8 13 30.16 1021 10 16 0.00 0.00

Powered by AerisWeather